| time (UTC) | temp F | wind direction | speed MPH | gust MPH | rain 1hr in | rain 24hr in | rain mn in | humidity % | barometer mb |
| 20260831091753 | 57 | 5 | 0.0 | 0.0 | 0.00 | 0.00 | 0.00 | 84 | 1021.8 |
| 20260831091253 | 57 | 5 | 0.0 | 0.0 | 0.00 | 0.00 | 0.00 | 84 | 1021.9 |
| 20260831090754 | 57 | 11 | 0.0 | 0.0 | 0.00 | 0.00 | 0.00 | 84 | 1021.9 |
| 20260831090251 | 58 | 9 | 0.0 | 0.0 | 0.00 | 0.00 | 0.00 | 83 | 1022.0 |
| 20260831085749 | 58 | 9 | 0.0 | 0.0 | 0.00 | 0.00 | 0.00 | 82 | 1022.0 |
| 20260831085247 | 58 | 9 | 0.0 | 0.0 | 0.00 | 0.00 | 0.00 | 82 | 1022.1 |
| 20260831084747 | 59 | 5 | 0.0 | 1.0 | 0.00 | 0.00 | 0.00 | 82 | 1022.0 |
| 20260831084246 | 59 | 5 | 0.0 | 1.0 | 0.00 | 0.00 | 0.00 | 82 | 1022.1 |
| 20260831083743 | 59 | 5 | 0.0 | 1.0 | 0.00 | 0.00 | 0.00 | 82 | 1022.1 |
| 20260831083241 | 59 | 9 | 0.0 | 1.0 | 0.00 | 0.00 | 0.00 | 82 | 1022.2 |
| 20260831082741 | 59 | 5 | 0.0 | 3.0 | 0.00 | 0.00 | 0.00 | 82 | 1022.1 |
| 20260831082241 | 59 | 5 | 0.0 | 3.0 | 0.00 | 0.00 | 0.00 | 82 | 1022.1 |
| 20260831081739 | 60 | 9 | 0.0 | 3.0 | 0.00 | 0.00 | 0.00 | 81 | 1022.2 |
| 20260831081240 | 60 | 9 | 1.0 | 3.0 | 0.00 | 0.00 | 0.00 | 81 | 1022.1 |
| 20260831080733 | 60 | 5 | 1.0 | 3.0 | 0.00 | 0.00 | 0.00 | 81 | 1022.2 |
| 20260831080233 | 60 | 11 | 1.0 | 3.0 | 0.00 | 0.00 | 0.00 | 81 | 1022.4 |
| 20260831075734 | 60 | 9 | 0.0 | 2.0 | 0.00 | 0.00 | 0.00 | 80 | 1022.4 |
| 20260831075234 | 60 | 9 | 0.0 | 3.0 | 0.00 | 0.00 | 0.00 | 80 | 1022.5 |
| 20260831074733 | 60 | 10 | 0.0 | 3.0 | 0.00 | 0.00 | 0.00 | 80 | 1022.4 |
| 20260831074234 | 60 | 5 | 0.0 | 3.0 | 0.00 | 0.00 | 0.00 | 80 | 1022.5 |
| 20260831073728 | 60 | 16 | 1.0 | 3.0 | 0.00 | 0.00 | 0.00 | 80 | 1022.4 |
| 20260831073227 | 61 | 16 | 1.0 | 3.0 | 0.00 | 0.00 | 0.00 | 80 | 1022.6 |
| 20260831072724 | 61 | 22 | 1.0 | 2.0 | 0.00 | 0.00 | 0.00 | 79 | 1022.7 |
| 20260831072221 | 61 | 22 | 1.0 | 2.0 | 0.00 | 0.00 | 0.00 | 79 | 1022.7 |
| 20260831071722 | 61 | 22 | 0.0 | 2.0 | 0.00 | 0.00 | 0.00 | 79 | 1022.7 |
| 20260831071217 | 61 | 22 | 0.0 | 2.0 | 0.00 | 0.00 | 0.00 | 78 | 1022.8 |
| 20260831070717 | 61 | 24 | 0.0 | 2.0 | 0.00 | 0.00 | 0.00 | 78 | 1022.9 |
| 20260831070219 | 62 | 24 | 0.0 | 2.0 | 0.00 | 0.00 | 0.00 | 78 | 1022.9 |
| 20260831065715 | 62 | 24 | 1.0 | 3.0 | 0.00 | 0.00 | 0.00 | 77 | 1022.9 |
| 20260831065216 | 62 | 25 | 1.0 | 3.0 | 0.00 | 0.00 | 0.00 | 77 | 1023.0 |
| 20260831064716 | 62 | 23 | 1.0 | 3.0 | 0.00 | 0.00 | 0.00 | 77 | 1023.1 |
| 20260831064213 | 62 | 26 | 0.0 | 3.0 | 0.00 | 0.00 | 0.00 | 76 | 1023.0 |
| 20260831063712 | 63 | 25 | 0.0 | 2.0 | 0.00 | 0.00 | 0.00 | 76 | 1023.1 |
| 20260831063211 | 63 | 27 | 0.0 | 2.0 | 0.00 | 0.00 | 0.00 | 75 | 1023.1 |
| 20260831062711 | 63 | 23 | 1.0 | 2.0 | 0.00 | 0.00 | 0.00 | 75 | 1023.2 |
| 20260831062212 | 63 | 23 | 1.0 | 3.0 | 0.00 | 0.00 | 0.00 | 74 | 1023.3 |
| 20260831061712 | 63 | 23 | 1.0 | 5.0 | 0.00 | 0.00 | 0.00 | 74 | 1023.3 |
| 20260831061208 | 63 | 19 | 2.0 | 5.0 | 0.00 | 0.00 | 0.00 | 74 | 1023.3 |
| 20260831060708 | 64 | 22 | 2.0 | 5.0 | 0.00 | 0.00 | 0.00 | 74 | 1023.4 |
| 20260831060207 | 64 | 11 | 1.0 | 4.0 | 0.00 | 0.00 | 0.00 | 73 | 1023.4 |
| 20260831055707 | 64 | 24 | 1.0 | 4.0 | 0.00 | 0.00 | 0.00 | 72 | 1023.5 |
| 20260831055205 | 64 | 20 | 1.0 | 4.0 | 0.00 | 0.00 | 0.00 | 72 | 1023.5 |
| 20260831054706 | 64 | 24 | 1.0 | 4.0 | 0.00 | 0.00 | 0.00 | 71 | 1023.4 |
| 20260831054205 | 64 | 13 | 1.0 | 3.0 | 0.00 | 0.00 | 0.00 | 71 | 1023.5 |
| 20260831053705 | 65 | 26 | 1.0 | 3.0 | 0.00 | 0.00 | 0.00 | 70 | 1023.5 |
| 20260831053204 | 65 | 28 | 1.0 | 7.0 | 0.00 | 0.00 | 0.00 | 70 | 1023.6 |
| 20260831052703 | 65 | 20 | 2.0 | 7.0 | 0.00 | 0.00 | 0.00 | 69 | 1023.7 |
| 20260831052205 | 65 | 25 | 1.0 | 5.0 | 0.00 | 0.00 | 0.00 | 69 | 1023.7 |
| 20260831051702 | 65 | 43 | 1.0 | 5.0 | 0.00 | 0.00 | 0.00 | 69 | 1023.7 |
| 20260831051200 | 66 | 17 | 2.0 | 5.0 | 0.00 | 0.00 | 0.00 | 68 | 1023.8 |
| 20260831050700 | 66 | 12 | 2.0 | 5.0 | 0.00 | 0.00 | 0.00 | 68 | 1023.7 |
| 20260831050153 | 66 | 32 | 2.0 | 5.0 | 0.00 | 0.00 | 0.00 | 68 | 1023.7 |
| 20260831045653 | 66 | 13 | 2.0 | 6.0 | 0.00 | 0.00 | 0.00 | 67 | 1023.8 |
| 20260831045153 | 67 | 44 | 3.0 | 9.0 | 0.00 | 0.00 | 0.00 | 67 | 1023.8 |
| 20260831044653 | 67 | 15 | 3.0 | 9.0 | 0.00 | 0.00 | 0.00 | 66 | 1023.8 |
| 20260831044153 | 67 | 13 | 3.0 | 7.0 | 0.00 | 0.00 | 0.00 | 66 | 1023.9 |
| 20260831043653 | 67 | 341 | 3.0 | 6.0 | 0.00 | 0.00 | 0.00 | 66 | 1023.8 |
| 20260831043147 | 67 | 24 | 3.0 | 6.0 | 0.00 | 0.00 | 0.00 | 65 | 1024.0 |
| 20260831042647 | 67 | 306 | 2.0 | 6.0 | 0.00 | 0.00 | 0.00 | 65 | 1023.9 |
| 20260831042147 | 68 | 32 | 2.0 | 6.0 | 0.00 | 0.00 | 0.00 | 64 | 1023.9 |
| 20260831041647 | 68 | 40 | 2.0 | 6.0 | 0.00 | 0.00 | 0.00 | 64 | 1023.9 |
| 20260831041147 | 68 | 305 | 3.0 | 7.0 | 0.00 | 0.00 | 0.00 | 63 | 1023.9 |
| 20260831040648 | 68 | 355 | 4.0 | 7.0 | 0.00 | 0.00 | 0.00 | 63 | 1023.9 |
| 20260831040141 | 68 | 344 | 3.0 | 8.0 | 0.00 | 0.00 | 0.00 | 63 | 1023.9 |
| 20260831035641 | 68 | 21 | 2.0 | 8.0 | 0.00 | 0.00 | 0.00 | 63 | 1024.0 |
| 20260831035141 | 69 | 5 | 3.0 | 8.0 | 0.00 | 0.00 | 0.00 | 63 | 1023.8 |
| 20260831034641 | 69 | 24 | 2.0 | 8.0 | 0.00 | 0.00 | 0.00 | 62 | 1023.8 |
| 20260831034141 | 69 | 355 | 2.0 | 7.0 | 0.00 | 0.00 | 0.00 | 62 | 1023.8 |
| 20260831033642 | 69 | 320 | 2.0 | 7.0 | 0.00 | 0.00 | 0.00 | 61 | 1023.7 |
| 20260831033137 | 69 | 36 | 2.0 | 8.0 | 0.00 | 0.00 | 0.00 | 61 | 1023.7 |
| 20260831032637 | 70 | 24 | 3.0 | 8.0 | 0.00 | 0.00 | 0.00 | 61 | 1023.6 |
| 20260831032135 | 70 | 85 | 3.0 | 10.0 | 0.00 | 0.00 | 0.00 | 60 | 1023.6 |
| 20260831031635 | 70 | 46 | 3.0 | 10.0 | 0.00 | 0.00 | 0.00 | 60 | 1023.7 |
| 20260831031135 | 70 | 54 | 3.0 | 10.0 | 0.00 | 0.00 | 0.00 | 60 | 1023.7 |
| 20260831030636 | 71 | 97 | 4.0 | 11.0 | 0.00 | 0.00 | 0.00 | 60 | 1023.8 |
| 20260831030133 | 71 | 28 | 3.0 | 11.0 | 0.00 | 0.00 | 0.00 | 60 | 1023.8 |
| 20260831025633 | 71 | 114 | 3.0 | 8.0 | 0.00 | 0.00 | 0.00 | 60 | 1023.7 |
| 20260831025134 | 72 | 42 | 3.0 | 10.0 | 0.00 | 0.00 | 0.00 | 60 | 1023.7 |
| 20260831024631 | 72 | 26 | 3.0 | 10.0 | 0.00 | 0.00 | 0.00 | 59 | 1023.6 |
| 20260831024129 | 72 | 342 | 3.0 | 10.0 | 0.00 | 0.00 | 0.00 | 59 | 1023.8 |
| 20260831023630 | 73 | 26 | 3.0 | 10.0 | 0.00 | 0.00 | 0.00 | 59 | 1023.8 |
| 20260831023124 | 73 | 53 | 3.0 | 10.0 | 0.00 | 0.00 | 0.00 | 58 | 1023.8 |
| 20260831022623 | 73 | 37 | 3.0 | 9.0 | 0.00 | 0.00 | 0.00 | 57 | 1023.7 |
| 20260831022123 | 73 | 19 | 3.0 | 13.0 | 0.00 | 0.00 | 0.00 | 57 | 1023.8 |
| 20260831021623 | 74 | 355 | 3.0 | 13.0 | 0.00 | 0.00 | 0.00 | 57 | 1023.8 |
| 20260831021122 | 74 | 42 | 3.0 | 10.0 | 0.00 | 0.00 | 0.00 | 57 | 1023.8 |
| 20260831020624 | 74 | 33 | 3.0 | 9.0 | 0.00 | 0.00 | 0.00 | 57 | 1023.8 |
| 20260831020119 | 74 | 36 | 4.0 | 9.0 | 0.00 | 0.00 | 0.00 | 56 | 1023.9 |
| 20260831015619 | 74 | 76 | 4.0 | 11.0 | 0.00 | 0.00 | 0.00 | 56 | 1023.8 |
| 20260831015116 | 74 | 26 | 4.0 | 11.0 | 0.00 | 0.00 | 0.00 | 56 | 1023.9 |
| 20260831014617 | 74 | 348 | 3.0 | 10.0 | 0.00 | 0.00 | 0.00 | 56 | 1023.9 |
| 20260831014117 | 74 | 57 | 4.0 | 14.0 | 0.00 | 0.00 | 0.00 | 55 | 1024.0 |
| 20260831013617 | 75 | 77 | 3.0 | 14.0 | 0.00 | 0.00 | 0.00 | 55 | 1024.0 |
| 20260831013112 | 75 | 13 | 4.0 | 11.0 | 0.00 | 0.00 | 0.00 | 55 | 1024.1 |
| 20260831012611 | 75 | 26 | 4.0 | 11.0 | 0.00 | 0.00 | 0.00 | 54 | 1024.0 |
| 20260831012111 | 76 | 0 | 4.0 | 11.0 | 0.00 | 0.00 | 0.00 | 54 | 1024.1 |
| 20260831011611 | 76 | 10 | 4.0 | 10.0 | 0.00 | 0.00 | 0.00 | 54 | 1024.0 |
| 20260831011111 | 76 | 36 | 4.0 | 10.0 | 0.00 | 0.00 | 0.00 | 54 | 1024.1 |
| 20260831010612 | 77 | 17 | 3.0 | 10.0 | 0.00 | 0.00 | 0.00 | 53 | 1024.3 |
| 20260831010108 | 76 | 32 | 3.0 | 9.0 | 0.00 | 0.00 | 0.00 | 53 | 1024.3 |
| 20260831005606 | 76 | 13 | 4.0 | 15.0 | 0.00 | 0.00 | 0.00 | 53 | 1024.3 |
| 20260831005105 | 76 | 51 | 5.0 | 15.0 | 0.00 | 0.00 | 0.00 | 53 | 1024.4 |
| 20260831004605 | 76 | 294 | 5.0 | 12.0 | 0.00 | 0.00 | 0.00 | 52 | 1024.4 |
| 20260831004104 | 76 | 57 | 4.0 | 10.0 | 0.00 | 0.00 | 0.00 | 53 | 1024.6 |
| 20260831003606 | 76 | 60 | 5.0 | 15.0 | 0.00 | 0.00 | 0.00 | 53 | 1024.3 |
| 20260831003103 | 76 | 50 | 5.0 | 15.0 | 0.00 | 0.00 | 0.00 | 53 | 1024.4 |
| 20260831002602 | 77 | 14 | 5.0 | 12.0 | 0.00 | 0.00 | 0.00 | 51 | 1024.5 |
| 20260831002104 | 77 | 338 | 4.0 | 11.0 | 0.00 | 0.00 | 0.00 | 51 | 1024.5 |
| 20260831001603 | 77 | 159 | 4.0 | 13.0 | 0.00 | 0.00 | 0.00 | 51 | 1024.6 |
| 20260831001104 | 77 | 53 | 4.0 | 13.0 | 0.00 | 0.00 | 0.00 | 52 | 1024.6 |
| 20260831000603 | 77 | 15 | 4.0 | 12.0 | 0.00 | 0.00 | 0.00 | 51 | 1024.8 |
| 20260831000104 | 77 | 9 | 4.0 | 12.0 | 0.00 | 0.00 | 0.00 | 51 | 1024.9 |
| 20260830235559 | 77 | 42 | 3.0 | 9.0 | 0.00 | 0.00 | 0.00 | 51 | 1025.0 |
| 20260830235058 | 77 | 51 | 3.0 | 12.0 | 0.00 | 0.00 | 0.00 | 52 | 1024.9 |
| 20260830234556 | 77 | 58 | 5.0 | 12.0 | 0.00 | 0.00 | 0.00 | 51 | 1025.0 |
| 20260830234056 | 77 | 5 | 5.0 | 11.0 | 0.00 | 0.00 | 0.00 | 50 | 1025.1 |
| 20260830233557 | 77 | 26 | 4.0 | 11.0 | 0.00 | 0.00 | 0.00 | 51 | 1025.3 |
| 20260830233057 | 77 | 0 | 4.0 | 11.0 | 0.00 | 0.00 | 0.00 | 50 | 1025.2 |
| 20260830232555 | 77 | 347 | 3.0 | 9.0 | 0.00 | 0.00 | 0.00 | 51 | 1025.5 |
| 20260830232055 | 77 | 355 | 4.0 | 10.0 | 0.00 | 0.00 | 0.00 | 50 | 1025.2 |
| 20260830231554 | 77 | 28 | 4.0 | 11.0 | 0.00 | 0.00 | 0.00 | 50 | 1025.3 |
| 20260830231054 | 77 | 36 | 4.0 | 11.0 | 0.00 | 0.00 | 0.00 | 50 | 1025.4 |
| 20260830230555 | 77 | 326 | 5.0 | 12.0 | 0.00 | 0.00 | 0.00 | 51 | 1025.4 |
| 20260830230055 | 77 | 33 | 5.0 | 12.0 | 0.00 | 0.00 | 0.00 | 50 | 1025.5 |
| 20260830225555 | 77 | 280 | 5.0 | 11.0 | 0.00 | 0.00 | 0.00 | 50 | 1025.5 |
| 20260830225052 | 77 | 324 | 4.0 | 11.0 | 0.00 | 0.00 | 0.00 | 50 | 1025.6 |
| 20260830224546 | 76 | 63 | 3.0 | 11.0 | 0.00 | 0.00 | 0.00 | 50 | 1025.8 |
| 20260830224040 | 76 | 44 | 4.0 | 10.0 | 0.00 | 0.00 | 0.00 | 51 | 1025.9 |
| 20260830223534 | 76 | 5 | 4.0 | 10.0 | 0.00 | 0.00 | 0.00 | 50 | 1026.0 |
| 20260830223028 | 76 | 299 | 4.0 | 12.0 | 0.00 | 0.00 | 0.00 | 51 | 1026.0 |
| 20260830222527 | 76 | 5 | 5.0 | 12.0 | 0.00 | 0.00 | 0.00 | 50 | 1026.2 |
| 20260830222026 | 76 | 277 | 4.0 | 9.0 | 0.00 | 0.00 | 0.00 | 50 | 1026.3 |
| 20260830221526 | 76 | 284 | 3.0 | 10.0 | 0.00 | 0.00 | 0.00 | 50 | 1026.3 |
| 20260830221024 | 76 | 5 | 3.0 | 10.0 | 0.00 | 0.00 | 0.00 | 51 | 1026.4 |
| 20260830220525 | 75 | 46 | 3.0 | 10.0 | 0.00 | 0.00 | 0.00 | 50 | 1026.6 |
| 20260830220026 | 75 | 35 | 3.0 | 10.0 | 0.00 | 0.00 | 0.00 | 50 | 1026.6 |
| 20260830215520 | 75 | 15 | 4.0 | 13.0 | 0.00 | 0.00 | 0.00 | 51 | 1026.7 |
| 20260830215021 | 75 | 34 | 4.0 | 13.0 | 0.00 | 0.00 | 0.00 | 50 | 1026.9 |
| 20260830214520 | 75 | 313 | 4.0 | 12.0 | 0.00 | 0.00 | 0.00 | 52 | 1026.9 |
| 20260830214021 | 74 | 36 | 4.0 | 12.0 | 0.00 | 0.00 | 0.00 | 53 | 1027.0 |
| 20260830213520 | 74 | 323 | 4.0 | 11.0 | 0.00 | 0.00 | 0.00 | 53 | 1027.1 |
| 20260830213022 | 74 | 263 | 4.0 | 10.0 | 0.00 | 0.00 | 0.00 | 52 | 1027.1 |
| 20260830212517 | 74 | 5 | 4.0 | 11.0 | 0.00 | 0.00 | 0.00 | 52 | 1027.2 |
| 20260830212016 | 74 | 16 | 4.0 | 11.0 | 0.00 | 0.00 | 0.00 | 52 | 1027.4 |
| 20260830211517 | 74 | 29 | 4.0 | 13.0 | 0.00 | 0.00 | 0.00 | 51 | 1027.2 |
| 20260830211017 | 74 | 74 | 3.0 | 13.0 | 0.00 | 0.00 | 0.00 | 53 | 1027.3 |
| 20260830210516 | 74 | 295 | 3.0 | 12.0 | 0.00 | 0.00 | 0.00 | 53 | 1027.4 |
| 20260830210017 | 73 | 188 | 4.0 | 12.0 | 0.00 | 0.00 | 0.00 | 53 | 1027.4 |
| 20260830205513 | 73 | 42 | 4.0 | 10.0 | 0.00 | 0.00 | 0.00 | 55 | 1027.5 |
| 20260830205012 | 73 | 9 | 4.0 | 12.0 | 0.00 | 0.00 | 0.00 | 53 | 1027.6 |
| 20260830204512 | 73 | 57 | 5.0 | 13.0 | 0.00 | 0.00 | 0.00 | 55 | 1027.6 |
| 20260830204013 | 72 | 316 | 4.0 | 13.0 | 0.00 | 0.00 | 0.00 | 55 | 1027.6 |
| 20260830203512 | 72 | 26 | 4.0 | 12.0 | 0.00 | 0.00 | 0.00 | 56 | 1027.8 |
| 20260830203014 | 72 | 32 | 5.0 | 12.0 | 0.00 | 0.00 | 0.00 | 56 | 1027.9 |
| 20260830202508 | 71 | 288 | 4.0 | 10.0 | 0.00 | 0.00 | 0.00 | 56 | 1027.9 |
| 20260830202008 | 71 | 263 | 5.0 | 12.0 | 0.00 | 0.00 | 0.00 | 57 | 1027.9 |
| 20260830201509 | 71 | 309 | 5.0 | 12.0 | 0.00 | 0.00 | 0.00 | 58 | 1028.0 |
| 20260830201006 | 71 | 277 | 4.0 | 11.0 | 0.00 | 0.00 | 0.00 | 58 | 1028.0 |
| 20260830200507 | 71 | 72 | 4.0 | 11.0 | 0.00 | 0.00 | 0.00 | 59 | 1028.0 |
| 20260830200006 | 70 | 86 | 5.0 | 12.0 | 0.00 | 0.00 | 0.00 | 59 | 1028.1 |
| 20260830195506 | 70 | 20 | 5.0 | 12.0 | 0.00 | 0.00 | 0.00 | 58 | 1028.2 |
| 20260830195000 | 70 | 331 | 3.0 | 10.0 | 0.00 | 0.00 | 0.00 | 59 | 1028.2 |
| 20260830194500 | 70 | 279 | 3.0 | 10.0 | 0.00 | 0.00 | 0.00 | 60 | 1028.2 |
| 20260830193958 | 70 | 332 | 4.0 | 10.0 | 0.00 | 0.00 | 0.00 | 61 | 1028.3 |
| 20260830193459 | 69 | 49 | 4.0 | 11.0 | 0.00 | 0.00 | 0.00 | 60 | 1028.3 |
| 20260830192958 | 70 | 40 | 5.0 | 13.0 | 0.00 | 0.00 | 0.00 | 61 | 1028.6 |
| 20260830192459 | 70 | 320 | 5.0 | 13.0 | 0.00 | 0.00 | 0.00 | 60 | 1028.5 |
| 20260830191954 | 70 | 346 | 4.0 | 11.0 | 0.00 | 0.00 | 0.00 | 61 | 1028.6 |
| 20260830191452 | 70 | 51 | 4.0 | 11.0 | 0.00 | 0.00 | 0.00 | 61 | 1028.7 |
| 20260830190952 | 69 | 31 | 4.0 | 11.0 | 0.00 | 0.00 | 0.00 | 62 | 1028.7 |
| 20260830190452 | 69 | 82 | 3.0 | 10.0 | 0.00 | 0.00 | 0.00 | 62 | 1028.8 |
| 20260830185952 | 69 | 279 | 2.0 | 11.0 | 0.00 | 0.00 | 0.00 | 63 | 1028.9 |
| 20260830185453 | 68 | 42 | 3.0 | 11.0 | 0.00 | 0.00 | 0.00 | 63 | 1028.9 |
| 20260830184946 | 68 | 60 | 2.0 | 7.0 | 0.00 | 0.00 | 0.00 | 63 | 1028.9 |
| 20260830184446 | 68 | 318 | 3.0 | 8.0 | 0.00 | 0.00 | 0.00 | 62 | 1028.9 |
| 20260830183946 | 68 | 355 | 3.0 | 10.0 | 0.00 | 0.00 | 0.00 | 64 | 1028.9 |
| 20260830183446 | 68 | 35 | 3.0 | 10.0 | 0.00 | 0.00 | 0.00 | 64 | 1028.9 |
| 20260830182946 | 67 | 346 | 3.0 | 9.0 | 0.00 | 0.00 | 0.00 | 66 | 1028.9 |
| 20260830182446 | 67 | 14 | 4.0 | 10.0 | 0.00 | 0.00 | 0.00 | 65 | 1028.9 |
| 20260830181945 | 67 | 5 | 4.0 | 10.0 | 0.00 | 0.00 | 0.00 | 65 | 1029.1 |
| 20260830181442 | 67 | 11 | 4.0 | 9.0 | 0.00 | 0.00 | 0.00 | 65 | 1029.0 |
| 20260830180943 | 67 | 351 | 3.0 | 9.0 | 0.00 | 0.00 | 0.00 | 65 | 1029.0 |
| 20260830180442 | 66 | 342 | 2.0 | 9.0 | 0.00 | 0.00 | 0.00 | 68 | 1029.0 |
| 20260830175940 | 66 | 338 | 2.0 | 6.0 | 0.00 | 0.00 | 0.00 | 70 | 1028.9 |
| 20260830175441 | 65 | 31 | 3.0 | 11.0 | 0.00 | 0.00 | 0.00 | 70 | 1028.9 |
| 20260830174936 | 65 | 298 | 3.0 | 11.0 | 0.00 | 0.00 | 0.00 | 72 | 1029.1 |
| 20260830174434 | 65 | 10 | 3.0 | 9.0 | 0.00 | 0.00 | 0.00 | 72 | 1028.9 |
| 20260830173934 | 64 | 26 | 3.0 | 9.0 | 0.00 | 0.00 | 0.00 | 74 | 1029.0 |
| 20260830173434 | 64 | 5 | 3.0 | 9.0 | 0.00 | 0.00 | 0.00 | 73 | 1029.0 |
| 20260830172934 | 64 | 350 | 4.0 | 9.0 | 0.00 | 0.00 | 0.00 | 74 | 1029.0 |
| 20260830172434 | 63 | 30 | 4.0 | 9.0 | 0.00 | 0.00 | 0.00 | 74 | 1029.0 |
| 20260830171929 | 63 | 19 | 4.0 | 8.0 | 0.00 | 0.00 | 0.00 | 76 | 1029.0 |
| 20260830171428 | 63 | 296 | 3.0 | 8.0 | 0.00 | 0.00 | 0.00 | 77 | 1028.9 |
| 20260830170928 | 62 | 294 | 3.0 | 8.0 | 0.00 | 0.00 | 0.00 | 77 | 1029.1 |
| 20260830170428 | 62 | 319 | 3.0 | 8.0 | 0.00 | 0.00 | 0.00 | 78 | 1029.2 |
| 20260830165928 | 62 | 34 | 3.0 | 9.0 | 0.00 | 0.00 | 0.00 | 78 | 1029.1 |
| 20260830165429 | 62 | 5 | 2.0 | 9.0 | 0.00 | 0.00 | 0.00 | 80 | 1029.2 |
| 20260830164925 | 61 | 329 | 2.0 | 5.0 | 0.00 | 0.00 | 0.00 | 79 | 1029.3 |
| 20260830164424 | 61 | 22 | 2.0 | 6.0 | 0.00 | 0.00 | 0.00 | 80 | 1029.3 |
| 20260830163925 | 60 | 5 | 2.0 | 7.0 | 0.00 | 0.00 | 0.00 | 81 | 1029.4 |
| 20260830163423 | 60 | 271 | 2.0 | 7.0 | 0.00 | 0.00 | 0.00 | 81 | 1029.3 |
| 20260830162922 | 60 | 335 | 2.0 | 5.0 | 0.00 | 0.00 | 0.00 | 82 | 1029.3 |
| 20260830162422 | 59 | 316 | 2.0 | 5.0 | 0.00 | 0.00 | 0.00 | 82 | 1029.3 |
| 20260830161918 | 59 | 340 | 2.0 | 4.0 | 0.00 | 0.00 | 0.00 | 83 | 1029.3 |
| 20260830161418 | 58 | 304 | 1.0 | 3.0 | 0.00 | 0.00 | 0.00 | 84 | 1029.3 |
| 20260830160915 | 58 | 43 | 2.0 | 4.0 | 0.00 | 0.00 | 0.00 | 85 | 1029.4 |
| 20260830160416 | 57 | 51 | 2.0 | 5.0 | 0.00 | 0.00 | 0.00 | 86 | 1029.3 |
| 20260830155916 | 56 | 38 | 2.0 | 5.0 | 0.00 | 0.00 | 0.00 | 86 | 1029.2 |
| 20260830155417 | 56 | 26 | 1.0 | 4.0 | 0.00 | 0.00 | 0.00 | 86 | 1029.3 |
| 20260830154914 | 55 | 10 | 1.0 | 3.0 | 0.00 | 0.00 | 0.00 | 87 | 1029.3 |
| 20260830154411 | 55 | 351 | 0.0 | 2.0 | 0.00 | 0.00 | 0.00 | 87 | 1029.2 |
| 20260830153913 | 55 | 350 | 0.0 | 2.0 | 0.00 | 0.00 | 0.00 | 88 | 1029.4 |
| 20260830153413 | 54 | 350 | 0.0 | 3.0 | 0.00 | 0.00 | 0.00 | 88 | 1029.3 |
| 20260830152909 | 54 | 350 | 1.0 | 3.0 | 0.00 | 0.00 | 0.00 | 89 | 1029.3 |
| 20260830152410 | 53 | 0 | 1.0 | 3.0 | 0.00 | 0.00 | 0.00 | 89 | 1029.4 |
| 20260830151908 | 53 | 355 | 1.0 | 3.0 | 0.00 | 0.00 | 0.00 | 89 | 1029.4 |
| 20260830151408 | 52 | 355 | 1.0 | 3.0 | 0.00 | 0.00 | 0.00 | 90 | 1029.5 |
| 20260830150909 | 52 | 298 | 2.0 | 3.0 | 0.00 | 0.00 | 0.00 | 91 | 1029.5 |
| 20260830150406 | 51 | 327 | 1.0 | 3.0 | 0.00 | 0.00 | 0.00 | 91 | 1029.7 |
| 20260830145904 | 51 | 331 | 1.0 | 3.0 | 0.00 | 0.00 | 0.00 | 91 | 1029.5 |
| 20260830145404 | 51 | 350 | 1.0 | 2.0 | 0.00 | 0.00 | 0.00 | 91 | 1029.7 |
| 20260830144859 | 51 | 350 | 1.0 | 2.0 | 0.00 | 0.00 | 0.00 | 91 | 1029.7 |
| 20260830144357 | 50 | 350 | 0.0 | 2.0 | 0.00 | 0.00 | 0.00 | 91 | 1029.7 |
| 20260830143854 | 50 | 350 | 0.0 | 2.0 | 0.00 | 0.00 | 0.00 | 91 | 1029.6 |
| 20260830143351 | 50 | 350 | 0.0 | 2.0 | 0.00 | 0.00 | 0.00 | 91 | 1029.7 |
| 20260830142853 | 49 | 355 | 0.0 | 2.0 | 0.00 | 0.00 | 0.00 | 92 | 1029.7 |
| 20260830142348 | 49 | 0 | 0.0 | 2.0 | 0.00 | 0.00 | 0.00 | 92 | 1029.6 |
| 20260830141848 | 48 | 0 | 0.0 | 2.0 | 0.00 | 0.00 | 0.00 | 92 | 1029.6 |
| 20260830141346 | 48 | 0 | 0.0 | 2.0 | 0.00 | 0.00 | 0.00 | 92 | 1029.6 |
| 20260830140851 | 47 | 0 | 0.0 | 2.0 | 0.00 | 0.00 | 0.00 | 92 | 1029.6 |
| 20260830140346 | 47 | 0 | 0.0 | 2.0 | 0.00 | 0.00 | 0.00 | 92 | 1029.7 |
| 20260830135846 | 46 | 0 | 0.0 | 1.0 | 0.00 | 0.00 | 0.00 | 91 | 1029.6 |
| 20260830135343 | 46 | 0 | 0.0 | 0.0 | 0.00 | 0.00 | 0.00 | 91 | 1029.6 |
| 20260830134843 | 46 | 0 | 0.0 | 0.0 | 0.00 | 0.00 | 0.00 | 91 | 1029.6 |
| 20260830134343 | 47 | 0 | 0.0 | 0.0 | 0.00 | 0.00 | 0.00 | 91 | 1029.6 |
| 20260830133843 | 47 | 0 | 0.0 | 0.0 | 0.00 | 0.00 | 0.00 | 91 | 1029.5 |
| 20260830133340 | 47 | 0 | 0.0 | 0.0 | 0.00 | 0.00 | 0.00 | 91 | 1029.5 |
| 20260830132840 | 47 | 0 | 0.0 | 0.0 | 0.00 | 0.00 | 0.00 | 91 | 1029.4 |
| 20260830132333 | 47 | 0 | 0.0 | 0.0 | 0.00 | 0.00 | 0.00 | 91 | 1029.5 |
| 20260830131833 | 47 | 0 | 0.0 | 0.0 | 0.00 | 0.00 | 0.00 | 91 | 1029.5 |
| 20260830131329 | 47 | 0 | 0.0 | 0.0 | 0.00 | 0.00 | 0.00 | 91 | 1029.4 |
| 20260830130828 | 47 | 0 | 0.0 | 0.0 | 0.00 | 0.01 | 0.00 | 91 | 1029.4 |
| 20260830130329 | 47 | 0 | 0.0 | 0.0 | 0.00 | 0.01 | 0.00 | 91 | 1029.4 |
| 20260830125824 | 47 | 0 | 0.0 | 0.0 | 0.00 | 0.01 | 0.00 | 90 | 1029.4 |
| 20260830125323 | 47 | 0 | 0.0 | 0.0 | 0.00 | 0.01 | 0.00 | 90 | 1029.3 |
| 20260830124822 | 47 | 0 | 0.0 | 0.0 | 0.00 | 0.01 | 0.00 | 91 | 1029.2 |
| 20260830124322 | 48 | 0 | 0.0 | 0.0 | 0.00 | 0.01 | 0.00 | 91 | 1029.1 |
| 20260830123819 | 48 | 0 | 0.0 | 0.0 | 0.00 | 0.01 | 0.00 | 91 | 1029.1 |
| 20260830123320 | 48 | 0 | 0.0 | 0.0 | 0.00 | 0.01 | 0.00 | 91 | 1029.1 |
| 20260830122816 | 48 | 0 | 0.0 | 0.0 | 0.00 | 0.01 | 0.00 | 91 | 1029.1 |
| 20260830122317 | 48 | 0 | 0.0 | 0.0 | 0.00 | 0.01 | 0.00 | 90 | 1029.0 |
| 20260830121816 | 48 | 0 | 0.0 | 1.0 | 0.00 | 0.01 | 0.00 | 91 | 1029.0 |
| 20260830121316 | 48 | 0 | 0.0 | 1.0 | 0.00 | 0.01 | 0.00 | 91 | 1029.1 |
| 20260830120817 | 48 | 0 | 0.0 | 0.0 | 0.00 | 0.01 | 0.00 | 91 | 1029.0 |
| 20260830120316 | 48 | 0 | 0.0 | 0.0 | 0.00 | 0.01 | 0.00 | 91 | 1028.9 |
| 20260830115813 | 48 | 0 | 0.0 | 1.0 | 0.00 | 0.01 | 0.00 | 91 | 1028.9 |
| 20260830115312 | 48 | 0 | 0.0 | 1.0 | 0.00 | 0.01 | 0.00 | 91 | 1029.0 |
| 20260830114812 | 48 | 0 | 0.0 | 0.0 | 0.00 | 0.01 | 0.00 | 90 | 1028.9 |
| 20260830114312 | 48 | 0 | 0.0 | 0.0 | 0.00 | 0.01 | 0.00 | 90 | 1028.9 |
| 20260830113812 | 48 | 0 | 0.0 | 0.0 | 0.00 | 0.01 | 0.00 | 90 | 1028.8 |
| 20260830113312 | 48 | 0 | 0.0 | 0.0 | 0.00 | 0.01 | 0.00 | 89 | 1028.8 |
| 20260830112808 | 48 | 0 | 0.0 | 0.0 | 0.00 | 0.01 | 0.00 | 89 | 1028.8 |
| 20260830112309 | 48 | 0 | 0.0 | 0.0 | 0.00 | 0.01 | 0.00 | 89 | 1028.9 |
| 20260830111807 | 49 | 0 | 0.0 | 0.0 | 0.00 | 0.01 | 0.00 | 89 | 1028.8 |
| 20260830111307 | 49 | 0 | 0.0 | 0.0 | 0.00 | 0.01 | 0.00 | 89 | 1028.9 |
| 20260830110808 | 49 | 0 | 0.0 | 0.0 | 0.00 | 0.01 | 0.00 | 89 | 1028.9 |
| 20260830110308 | 49 | 0 | 0.0 | 0.0 | 0.00 | 0.01 | 0.00 | 89 | 1028.9 |
| 20260830105805 | 49 | 0 | 0.0 | 0.0 | 0.00 | 0.01 | 0.00 | 89 | 1029.0 |
| 20260830105305 | 50 | 0 | 0.0 | 0.0 | 0.00 | 0.01 | 0.00 | 89 | 1029.0 |
| 20260830104804 | 50 | 0 | 0.0 | 0.0 | 0.00 | 0.01 | 0.00 | 89 | 1029.0 |
| 20260830104304 | 50 | 0 | 0.0 | 0.0 | 0.00 | 0.01 | 0.00 | 89 | 1029.0 |
| 20260830103805 | 50 | 0 | 0.0 | 0.0 | 0.00 | 0.01 | 0.00 | 89 | 1029.0 |
| 20260830103305 | 51 | 0 | 0.0 | 0.0 | 0.00 | 0.01 | 0.00 | 89 | 1029.0 |
| 20260830102759 | 51 | 0 | 0.0 | 0.0 | 0.00 | 0.01 | 0.00 | 88 | 1029.0 |
| 20260830102257 | 51 | 0 | 0.0 | 0.0 | 0.00 | 0.01 | 0.00 | 88 | 1029.0 |
| 20260830101755 | 51 | 0 | 0.0 | 0.0 | 0.00 | 0.01 | 0.00 | 88 | 1029.0 |
| 20260830101256 | 51 | 0 | 0.0 | 0.0 | 0.00 | 0.01 | 0.00 | 88 | 1028.9 |
| 20260830100753 | 51 | 0 | 0.0 | 0.0 | 0.00 | 0.01 | 0.00 | 88 | 1028.9 |
| 20260830100254 | 52 | 0 | 0.0 | 0.0 | 0.00 | 0.01 | 0.00 | 88 | 1029.0 |
| 20260830095747 | 52 | 0 | 0.0 | 0.0 | 0.00 | 0.01 | 0.00 | 88 | 1029.0 |
| 20260830095247 | 52 | 0 | 0.0 | 1.0 | 0.00 | 0.01 | 0.00 | 88 | 1028.9 |
| 20260830094747 | 53 | 0 | 0.0 | 1.0 | 0.00 | 0.01 | 0.00 | 88 | 1029.0 |
| 20260830094247 | 53 | 0 | 0.0 | 1.0 | 0.00 | 0.01 | 0.00 | 88 | 1029.0 |
| 20260830093747 | 53 | 0 | 0.0 | 1.0 | 0.00 | 0.01 | 0.00 | 87 | 1029.0 |
| 20260830093247 | 53 | 0 | 0.0 | 0.0 | 0.00 | 0.01 | 0.00 | 86 | 1029.0 |
| 20260830092746 | 53 | 0 | 0.0 | 0.0 | 0.00 | 0.01 | 0.00 | 86 | 1029.0 |
| 20260830092249 | 54 | 0 | 0.0 | 0.0 | 0.00 | 0.01 | 0.00 | 87 | 1029.1 |